This is the latest recevied weather packets stored in our database for station/object DD3UTS-13. If no packets are shown the sender has not sent any weather packets the latest 10 day(s).
| Time | Temp. | Humidity | Pressure | Rain* | Wind** | Luminosity | Snow |
|---|---|---|---|---|---|---|---|
| 1777704331 | 18.89° C | 44% | 1022.9 hPa | 0 mm | - | 398 W/m² | - |
| 1777704031 | 18.89° C | 45% | 1022.9 hPa | 0 mm | - | 393 W/m² | - |
| 1777703732 | 18.33° C | 45% | 1023 hPa | 0 mm | - | 384 W/m² | - |
| 1777703432 | 17.22° C | 47% | 1023 hPa | 0 mm | - | 380 W/m² | - |
| 1777703132 | 16.11° C | 50% | 1023 hPa | 0 mm | - | 377 W/m² | - |
| 1777702833 | 16.11° C | 51% | 1023 hPa | 0 mm | - | 375 W/m² | - |
| 1777702532 | 15.56° C | 51% | 1023 hPa | 0 mm | - | 373 W/m² | - |
| 1777702232 | 14.44° C | 53% | 1022.9 hPa | 0 mm | - | 370 W/m² | - |
| 1777701932 | 14.44° C | 53% | 1023 hPa | 0 mm | - | 367 W/m² | - |
| 1777701631 | 13.89° C | 53% | 1023 hPa | 0 mm | - | 138 W/m² | - |
| 1777701331 | 13.89° C | 53% | 1023 hPa | 0 mm | - | 131 W/m² | - |
| 1777701031 | 13.33° C | 53% | 1023 hPa | 0 mm | - | 122 W/m² | - |
| 1777700731 | 13.33° C | 53% | 1023 hPa | 0 mm | - | 114 W/m² | - |
| 1777700432 | 12.78° C | 54% | 1023 hPa | 0 mm | - | 112 W/m² | - |
| 1777700132 | 12.78° C | 56% | 1022.9 hPa | 0 mm | - | 106 W/m² | - |
| 1777699831 | 12.22° C | 56% | 1023 hPa | 0 mm | - | 101 W/m² | - |
| 1777699532 | 12.22° C | 58% | 1022.9 hPa | 0 mm | - | 96 W/m² | - |
| 1777699232 | 12.22° C | 58% | 1023 hPa | 0 mm | - | 88 W/m² | - |
| 1777698931 | 12.22° C | 58% | 1022.9 hPa | 0 mm | - | 83 W/m² | - |
| 1777698631 | 11.67° C | 58% | 1022.9 hPa | 0 mm | - | 78 W/m² | - |
| 1777698332 | 11.11° C | 57% | 1022.9 hPa | 0 mm | - | 73 W/m² | - |
| 1777698031 | 10.56° C | 59% | 1022.9 hPa | 0 mm | - | 68 W/m² | - |
| 1777697732 | 10.56° C | 58% | 1022.9 hPa | 0 mm | - | 64 W/m² | - |
| 1777697432 | 10.56° C | 59% | 1022.9 hPa | 0 mm | - | 58 W/m² | - |
| 1777697132 | 10.56° C | 58% | 1022.8 hPa | 0 mm | - | 52 W/m² | - |
* Rain latest 24 hours (hover to see other rain measurements)
** Current wind speed in m/s (hover to see current wind gust speed)